Bodensee (Kressbronn): 6,1°C  -  Teich der Wetterzentrale Bad Schussenried: 5,0°C |  Schneehöhe Kreuzthal-Steinberg (930 m ü. NN): 10 cm   
13.12.2019Höhe
ü. NN
ZeitTemperatur (°C)Nieder-
schlag
Luft-
feuchte
Luft-
druck
Wind
StationaktuellMinimumMaximumaktuellMaximum
Aldingen654 m02:11-0,5-1,0 (21:41)-0,2 (11:26)0,2 l/m²90%991,314,8 km/h (3 Bft) SO22,2 km/h (4 Bft) O-SO (01:41)
Allmannsweiler625 m02:10-1,4-3,1 (01:00)-1,4 (02:10)0,0 l/m²92%991,18,0 km/h (2 Bft) SW11,3 km/h (2 Bft) W-SW (01:45)
Allmendingen541 m02:10-3,9-4,7 (23:50)-3,9 (14:25)0,0 l/m²93%991,60,0 km/h (0 Bft) O-NO22,5 km/h (4 Bft) W-SW (14:20)
Altshausen574 m02:10-3,3-4,6 (00:05)-3,2 (01:59)0,0 l/m²85%990,53,2 km/h (1 Bft) O-NO6,4 km/h (2 Bft) O-NO (01:53)
Amstetten-Reutti663 m02:10-3,4-4,8 (01:10)-3,4 (13:50)0,0 l/m²96%991,212,9 km/h (3 Bft) O-SO19,3 km/h (3 Bft) W-SW (14:10)
Amtzell-Grenis677 m02:10-1,4-2,4 (00:40)-1,1 (01:45)0,0 l/m²67%993,312,9 km/h (3 Bft) S20,9 km/h (4 Bft) S (01:25)
Aulendorf570 m02:10-2,4-3,0 (00:44)-2,3 (02:09)0,0 l/m²92%991,00,0 km/h (0 Bft) W4,8 km/h (1 Bft) O (00:14)
Bad Krozingen233 m02:106,10,7 (22:25)6,1 (02:10)0,4 l/m²80%989,229,7 km/h (5 Bft) S-SO37,9 km/h (5 Bft) SW (08:05)
Bad Saulgau595 m02:10-2,7-3,4 (00:45)-2,7 (14:05)0,0 l/m²93%990,20,0 km/h (0 Bft) SW27,4 km/h (4 Bft) N-NW (10:25)
Bad Saulgau-Lampertsweiler627 m02:10-2,6-3,1 (01:15)-2,2 (00:05)0,0 l/m²88%993,70,0 km/h (0 Bft) S-SO0,0 km/h (0 Bft) S-SO (00:00)
Bad Schussenried572 m02:10-3,2-3,8 (00:00)-3,2 (02:05)0,0 l/m²95%989,90,0 km/h (0 Bft) W-SW0,0 km/h (0 Bft) W-SW (00:00)
Bergatreute615 m02:10-1,7-1,8 (00:10)-1,6 (00:00)0,0 l/m²88%991,13,2 km/h (1 Bft) SO8,0 km/h (2 Bft) O (00:55)
Biberach (Riss), Boehringer533 m02:20-2,9-3,7 (01:50)-2,8 (02:20)0,0 l/m²98%992,80,0 km/h (0 Bft) S-SO5,0 km/h (1 Bft) W-NW (00:40)
Biberach (Riss), Realschule553 m02:10-3,3-3,4 (01:35)-2,7 (00:00)0,0 l/m²94%992,53,2 km/h (1 Bft) SW6,4 km/h (2 Bft) S-SO (00:00)
Burgrieden523 m02:10-3,4-3,4 (00:30)-3,0 (00:00)0,0 l/m²90%991,50,0 km/h (0 Bft) O6,4 km/h (2 Bft) S-SO (00:15)
Burgrieden-Hochstetten510 m02:10-3,5-3,9 (01:10)-3,0 (14:05)0,0 l/m²94%991,80,0 km/h (0 Bft) S22,5 km/h (4 Bft) W-SW (13:45)
Ebersbach579 m02:10-3,1-3,8 (01:20)-2,8 (00:00)0,0 l/m²95%992,00,0 km/h (0 Bft) N-NO4,8 km/h (1 Bft) O (02:00)
Ebersbach-Boos605 m02:10-3,0-3,5 (01:35)-2,7 (00:00)0,0 l/m²95%991,90,0 km/h (0 Bft) O0,0 km/h (0 Bft) O-SO (00:00)
Ebersbach-Menzenweiler661 m02:10-1,8-1,9 (01:40)-1,0 (00:45)0,0 l/m²89%991,88,0 km/h (2 Bft) S-SO17,7 km/h (3 Bft) O-SO (00:15)
Erlenmoos645 m02:10-2,6-2,7 (01:20)-2,0 (00:20)0,0 l/m²92%991,711,3 km/h (2 Bft) S-SW17,7 km/h (3 Bft) S (00:15)
Ertingen569 m02:10-2,9-3,1 (01:40)-2,8 (00:40)0,0 l/m²95%991,31,6 km/h (1 Bft) SO3,2 km/h (1 Bft) SO (00:10)
Friedrichshafen405 m02:100,0-0,4 (01:00)0,4 (14:40)0,0 l/m²85%992,04,8 km/h (1 Bft) W-SW30,6 km/h (5 Bft) W-NW (12:40)
Günzburg443 m02:10-3,9-3,9 (02:00)-2,7 (00:00)0,0 l/m²92%989,30,0 km/h (0 Bft) S0,0 km/h (0 Bft) S (00:00)
Hochdorf-Appendorf537 m02:10-4,1-5,0 (00:10)-4,1 (02:10)0,0 l/m²79%999,13,2 km/h (1 Bft) S8,0 km/h (2 Bft) NW (00:35)
Höchsten802 m02:10-1,7-2,9 (01:00)-1,7 (02:00)0,0 l/m²89%989,69,7 km/h (2 Bft) SW14,5 km/h (3 Bft) S-SW (01:55)
Horgenzell618 m02:10-1,8-2,2 (00:35)-1,6 (00:00)0,0 l/m²87%990,33,2 km/h (1 Bft) S-SW6,4 km/h (2 Bft) O-SO (00:50)
Hoßkirch632 m02:10-3,1-4,4 (00:20)-3,0 (02:10)0,0 l/m²95%990,40,0 km/h (0 Bft) N6,4 km/h (2 Bft) N (01:15)
Isny, Am Dreifingerbach695 m02:10-5,3-7,2 (00:30)-5,3 (02:10)0,0 l/m²95%991,89,7 km/h (2 Bft) O-SO9,7 km/h (2 Bft) O (02:10)
Isny, Weidachweg706 m02:10-5,1-7,0 (00:50)-5,0 (02:10)0,0 l/m²88%994,18,0 km/h (2 Bft) SO8,0 km/h (2 Bft) SO (02:00)
Kappel-Grafenhausen163 m02:052,40,1 (22:35)2,4 (13:55)0,0 l/m²90%987,017,7 km/h (3 Bft) S33,8 km/h (5 Bft) S (12:10)
Kirchberg an der Iller584 m02:10-2,7-3,0 (01:20)-2,4 (03:00)0,0 l/m²87%983,40,0 km/h (0 Bft) S-SO22,2 km/h (4 Bft) O-SO (12:40)
Kißlegg-Staibshof709 m02:10-3,4-3,7 (00:00)-3,4 (02:05)0,0 l/m²92%991,90,0 km/h (0 Bft) S-SO0,0 km/h (0 Bft) SW (00:00)
Kressbronn398 m02:141,31,1 (00:14)2,1 (00:50)0,0 l/m²86%990,90,0 km/h (0 Bft) W29,0 km/h (5 Bft) W (00:42)
Kreuzthal-Steinberg-Alpe930 m02:10-5,0-5,5 (01:50)-4,9 (02:10)0,0 l/m²100%996,51,4 km/h (1 Bft) SW6,5 km/h (2 Bft) W-NW (00:00)
Kreuzthal-Steinberggipfel1040 m02:10-3,5-4,4 (00:10)-3,2 (01:50)-86%996,55,4 km/h (1 Bft) W-SW12,2 km/h (3 Bft) S (00:00)
Kristberg im Montafon (AT)1425 m02:10-2,3-5,6 (00:00)-2,3 (02:10)0,0 l/m²58%994,89,7 km/h (2 Bft) S-SO9,7 km/h (2 Bft) N-NO (00:15)
Laupheim500 m02:10-2,9-3,5 (00:05)-2,9 (02:10)0,0 l/m²92%991,00,0 km/h (0 Bft) O-SO4,8 km/h (1 Bft) O-SO (00:45)
Leutkirch-Heggelbach670 m02:10-5,6-6,2 (01:30)-5,6 (00:00)0,0 l/m²93%991,20,0 km/h (0 Bft) W-SW1,6 km/h (1 Bft) SW (00:10)
Lindau-Insel420 m02:102,11,5 (00:40)2,3 (15:10)0,0 l/m²84%991,43,2 km/h (1 Bft) W-NW27,4 km/h (4 Bft) S-SO (21:00)
Lindau-Stadt412 m02:101,60,9 (20:10)1,6 (14:45)0,0 l/m²81%991,81,6 km/h (1 Bft) O-SO24,1 km/h (4 Bft) O-SO (14:30)
Maierhöfen im Allgäu733 m02:15-7,3-10,2 (00:40)-7,3 (02:15)0,0 l/m²94%992,96,4 km/h (2 Bft) NW6,4 km/h (2 Bft) NW (02:15)
Maselheim543 m02:10-3,2-3,7 (00:50)-2,8 (15:20)0,0 l/m²91%991,83,2 km/h (1 Bft) S29,0 km/h (5 Bft) SW (12:20)
Maselheim-Sulmingen548 m02:10-3,3-4,1 (00:15)-3,3 (15:20)0,0 l/m²94%993,10,0 km/h (0 Bft) O30,6 km/h (5 Bft) W (12:45)
Mietingen-Baltringen528 m02:10-3,2-3,3 (01:50)-2,7 (00:00)0,0 l/m²90%993,20,0 km/h (0 Bft) W6,4 km/h (2 Bft) O-SO (00:35)
Mittelbiberach577 m02:10-3,4-4,3 (00:10)-3,3 (15:10)0,0 l/m²93%992,83,2 km/h (1 Bft) SW25,7 km/h (4 Bft) W-SW (13:30)
Neresheim552 m02:00-3,2-3,2 (02:00)-2,0 (00:00)0,0 l/m²100%988,36,5 km/h (2 Bft) SO6,5 km/h (2 Bft) SO (02:00)
Neukirch570 m02:10-2,4-2,6 (23:00)-0,7 (14:55)0,0 l/m²91%992,03,2 km/h (1 Bft) NO30,6 km/h (5 Bft) W-SW (12:10)
Ochsenhausen, Birkenstraße613 m02:10-3,2-3,4 (01:50)-2,2 (15:10)0,0 l/m²86%992,20,0 km/h (0 Bft) N0,0 km/h (0 Bft) N (03:00)
Ochsenhausen, Unt. Wiesen575 m02:10-3,4-3,8 (01:20)-2,3 (00:00)0,0 l/m²92%993,24,8 km/h (1 Bft) S6,4 km/h (2 Bft) S (01:50)
Ostrach619 m02:10-2,2-3,8 (00:45)-2,2 (02:05)0,0 l/m²96%990,01,6 km/h (1 Bft) S4,8 km/h (1 Bft) S (00:55)
Ravensburg, Goethestraße428 m02:20-1,3-1,6 (00:50)-1,3 (00:25)0,0 l/m²93%991,00,0 km/h (0 Bft) N-NO3,2 km/h (1 Bft) N-NO (02:10)
Ravensburg, Springerstraße441 m02:10-0,6-1,4 (00:00)-0,6 (02:10)0,0 l/m²85%990,10,0 km/h (0 Bft) O-NO0,0 km/h (0 Bft) O-NO (00:00)
Ravensburg-Wernsreute511 m02:10-1,6-2,4 (23:45)-1,6 (14:35)0,0 l/m²92%993,94,8 km/h (1 Bft) O30,6 km/h (5 Bft) W-SW (11:45)
Reichenbach an der Fils343 m02:101,0-0,6 (00:20)1,3 (01:35)0,0 l/m²79%991,99,7 km/h (2 Bft) O-SO19,3 km/h (3 Bft) O-SO (00:55)
Reinstetten559 m02:10-3,8-3,9 (01:45)-2,7 (00:00)0,0 l/m²92%992,40,0 km/h (0 Bft) W-SW8,0 km/h (2 Bft) SW (00:10)
Riedlingen530 m02:10-2,9-3,4 (01:15)-2,9 (02:05)0,0 l/m²96%991,70,0 km/h (0 Bft) O-SO0,0 km/h (0 Bft) S-SW (00:00)
Rißtissen489 m02:10-2,7-3,0 (00:45)-2,7 (00:00)0,0 l/m²94%989,10,0 km/h (0 Bft) S-SO0,0 km/h (0 Bft) S-SW (00:00)
Schemmerhofen520 m02:10-3,4-3,7 (01:25)-3,2 (00:00)0,0 l/m²96%991,30,0 km/h (0 Bft) O-SO4,8 km/h (1 Bft) O-SO (00:35)
Silbertal im Montafon (AT)884 m02:10-3,3-6,5 (00:00)-3,3 (02:10)0,0 l/m²96%994,73,2 km/h (1 Bft) O-NO6,4 km/h (2 Bft) O-NO (01:00)
Tettnang466 m02:100,90,8 (00:05)1,0 (01:05)0,0 l/m²80%991,54,8 km/h (1 Bft) O-SO16,1 km/h (3 Bft) SO (00:05)
Tuttlingen662 m02:08-2,2-4,2 (00:13)-1,9 (01:53)0,0 l/m²83%994,23,1 km/h (1 Bft) NO3,1 km/h (1 Bft) NO (02:08)
Tuttlingen, Möhringer-Vorstadt711 m02:10-1,8-3,8 (23:40)-1,8 (13:50)0,0 l/m²95%991,18,0 km/h (2 Bft) SW19,3 km/h (3 Bft) W (13:50)
Ummendorf547 m02:10-3,3-3,9 (00:20)-2,4 (00:00)0,0 l/m²86%992,90,0 km/h (0 Bft) S6,4 km/h (2 Bft) S (02:05)
Ummendorf-Fischbach558 m02:10-3,4-4,3 (00:05)-3,4 (02:10)0,0 l/m²86%992,64,8 km/h (1 Bft) O-SO6,4 km/h (2 Bft) S (00:40)
Waldburg707 m02:10-1,5-2,3 (00:55)-1,5 (02:10)0,0 l/m²84%991,40,0 km/h (0 Bft) N9,7 km/h (2 Bft) N (00:10)
Waltenhofen im Allgäu720 m02:10-5,4-7,0 (00:25)-5,4 (01:55)0,0 l/m²93%991,94,8 km/h (1 Bft) S30,6 km/h (5 Bft) S (13:05)
Weingarten500 m02:10-1,2-2,1 (00:00)-1,2 (02:10)0,0 l/m²92%991,20,0 km/h (0 Bft) SO1,6 km/h (1 Bft) W-NW (00:25)
Winterlingen785 m02:00-3,3-5,2 (00:15)-3,3 (02:00)0,0 l/m²98%990,35,0 km/h (1 Bft) S-SO5,0 km/h (1 Bft) S-SO (02:00)

niederschlagsdatenbank | info | login - erfassung

Sollten Sie Interesse haben, an der Niederschlagsdatenbank teilzunehmen, finden Sie > hier < weitere Informationen.
Datum: . . Kalender
Anmerkung:0,0 = nicht messbarer Niederschlag
 -  = kein Niederschlag
 k  = kumulierter Niederschlag

< 06.08.201908.08.2019 >


Niederschlagswerte vom 07.08.2019    -    derzeit 110 Stationen

Die Niederschlagswerte des gewählten Tages lassen sich durch Klicken auf das Datum sortieren.
Die Angaben sind in l/m².

Station04.08.05.08.06.08.07.08.08.08.09.08.10.08.Bemerkung 07.08.
Aichstetten Ulmenstraße 7-------
Aichstetten-Nestbaum Nestbaum-15,0-10,0-12,0-
Albbruck Furmisstr. 18-21,20,815,0-10,2-
Wechselhaft, meist bewölkt u. Gewitterige Schauer +24°C Nachts +14 [weiterlesen...]
Regen Gewitter
Allmendingen Querqueviller Ring 6--1,716,8-5,54,5
Regen Gewitter
Amstetten-Reutti Gassenäcker 13--2,412,6-8,41,6
Regen
Aulendorf Steinenbacher Weg 33-8,51,89,0-15,23,8
Regen
Aulendorf-Blönried Heuweg 32-10,0-5,4-12,45,5
Bad Bellingen Rheinstraße 76-------
Bad Buchau Hanfweiher 10,03,51,014,0---
Bad Saulgau Walserweg0,09,00,06,5-22,59,0
Regen
Bad Saulgau-Hochberg Lampertsweiler Straße 120,06,90,57,0-15,06,0
Bad Schussenried Konradstraße0,08,30,56,0-10,84,7
Regen
Bad Schussenried Lortzingstrasse-8,0-6,5-11,54,5
Regen
Bad Schussenried Klosterstraße-9,0-6,0-3,012,0
Regen
Bad Schussenried Theodor-Storm-Strasse0,09,0-6,0--13,5
Regen
Bad Schussenried-Hopferbach Unterer Öschweg 16/10,09,00,06,0-10,0-
Regen
Bad Schussenried-Lufthütte Hauptgasse 17-7,00,57,0-4,011,0
Bad Schussenried-Sattenbeuren Ortsstraße 7-------
Bad Schussenried-Schwaigfurt Schwaigfurt 2-6,80,18,0-10,06,5
Bad Waldsee-Haisterkirch Zur Spitzenkapelle 10,08,50,510,0-6,56,0
+16/+22°C, einzelne Schauer, am späten Abend kräftiger Regen
Regen
Bad Wurzach-Seibranz Kimpflerhof 2 -13,00,59,0-5,010,0
Baienfurt Untere Bergstrasse 7-14,0-6,0-7,06,0
Regen Gewitter
Balzheim Hinterm Liess 190,50,30,316,0-4,06,0
Regen Gewitter
Berg-Kleintobel Kleintobel-18,80,57,3--2,3
Regen
Biberach Amriswilstrasse-2,41,014,1-9,25,0
Regen
Biberach Strölinweg---14,0-13,57,5
Regen
Biberach Erlenweg-3,0-15,0-9,05,5
Regen
Biberach Neue Heimat 5-2,01,018,0-12,05,0
Regen
Biberach Mittelbergstraße 90,02,01,015,0-9,54,5
Regen
Biberach-Bergerhausen Löcherstr.10,31,50,516,0-9,03,5
Bierstetten Schloßbühl 6-8,00,45,0---
Regen
Blaubeuren-Pappelau Sotzenhauserstr.70,52,0-19,0-5,0-
Regen
Bühlertal Wolfinstraße 16-1,0-36,0-1,06,0
Regen
Dornstadt-Tomerdingen Maienweg 9--0,614,4-6,25,3
Dürnau Dorfäckerweg 5-4,04,016,0-31,05,0
Regen
Eberhardzell Lilienweg0,08,22,08,90,412,94,8
Ebersbach-Roßwälden Appenwiesen0,00,03,541,5-12,2-
Den ganzen Tag über immer wieder Regen.

17,2 bisb18,5 Grad
Regen
Ehingen Rosenstraße0,21,62,211,2-9,03,5
Regen
Ehingen Zanderstraße-------
Ehingen Schlaufenbühl-0,32,713,6-7,46,8
Regen Gewitter
Ehingen Schillerstraße0,20,22,716,0-7,94,4
Regen Gewitter
Ehingen-Herbertshofen Tobelweg 9-------
Eislingen Albstraße 1250,10,516,530,2-9,70,4
Regen Gewitter
Erbach-Bach Hauptstraße 24-0,02,516,5-18,54,5
Regen Gewitter
Erlenmoos Haldenweg 15-3,11,611,8-8,84,9
Regen
Füramoos Hungersberg 1--6,96,2--10,3
Gutenzell Kleinser Berg 1-1,01,013,0--11,5
Gutenzell-Hürbel Bei der Sägmühle 10,51,51,514,0-8,32,6
Regen
Herbertingen Drosselweg0,03,02,511,0-12,05,5
Bei max.21 Grad ein regnerischer Tag.Kurz nach 18 Uhr Starkregen,der 9 [weiterlesen...]
Regen
Herbertingen Hirschstrasse------43,0
Hochdorf-Schweinhausen Lindenweg 2-6,21,89,8--17,4
Hohentengen-Bremen Bremer Halde 40,04,00,06,0-9,05,0
Regen
Horgenzell-Ringgenweiler Ringgenweiler 620-13,50,87,10,015,33,1
Hüttisheim Ulmer Weg 20,02,01,525,0-16,07,5
Regen
Illerkirchberg Mahdauweg 20-0,01,318,2-12,96,5
Regen Bodennebel
Illerrieden-Wangen Am Muckenberg 12-4,00,516,0-14,02,5
Immenstaad Stockwiesen 10-------
Inzigkofen Butzenweg 10,04,0--18,14,53,5
Isny Am Dreifingerbach 39-40,02,616,6-11,011,2
Regen
Kirchberg Rosenstr. 7-1,01,512,0-5,07,0
Regen
Kreuzthal-Steinberg-Alpe Im Kreuzbachthal 85-29,62,818,4-4,512,5
Regen
Langenau Wasserstr. 54-1--1,012,0-6,08,0
Langenenslingen Schattenweiler Str. 180,31,85,215,20,13,34,9
Regen Bodennebel
Leutkirch Unterer Auenweg 250,014,22,27,3-1,811,0
Regen
Leutkirch Nachtigallenweg 28-22,02,010,0--16,0
Leutkirch-Adrazhofen Bergstraße 20-17,06,08,5-3,012,5
Merklingen Millergasse 9-------
Mietingen Seerosenweg 10-0,00,520,0-12,05,0
Regen
Mietingen-Walpertshofen Bussenweg 31--2,022,0-7,011,0
Mittelbiberach-Reute Rindenmooser Straße 20,03,9-12,2-4,58,2
Regen
Moosburg Käserweg 50,03,21,816,2-23,08,6
Durchweg bewölkt mit einzelnen, teils länger anhaltenden, Schauern.
Regen
Münsingen-Rietheim In der Lise 200,6-3,417,0-10,61,0
Regen
Neresheim Alfred-Delp-Straße 8-0,512,820,30,010,42,2
Regen Gewitter
Oberdischingen Normannenstraße 70,00,03,116,9-17,83,8
Regen Gewitter
Ochsenhausen Ehrensberger Weg 5-3,00,412,6-2,48,6
Regen
Öpfingen Hauptstraße 990,03,62,915,8-12,09,1
Regen Nebelnässe
Ostrach Uhlandweg-14,5-4,5-35,54,5
Regen
Pfaffenhofen-Kadeltshofen Mühlbachstraße 4-1,02,020,00,010,06,0
nachmittags setzte dann doch noch anhaltender Regen ein
Pfullendorf Am Schweizersbild -------
Rangendingen Donaustraße 19--2,021,0-24,0-
Regen
Ravensburg Bleicherstraße---40,0-13,72,5
Ges.
Ravensburg-Schmalegg St.-Magdalena-Ring 42-16,5-6,0-13,92,0
Ravensburg-Wernsreute Wernsreute 25-41,8----20,8
Ravensburg-Weststadt Karl-Erb-Ring 142-24,0-8,0-12,0-
Regen
Regensburg Orleansstraße 3-------
Riedhausen Blütenweg 13-10,47,48,0-20,04,0
Temp. +15,3°C /20,8°C, Windböen W-SW 29,0 km/h
Regen
Riedlingen Berliner Str. 4127,52,05,017,5-5,07,5
Regen
Riedlingen-Neufra Panoramaweg-------
Riedlingen-Neufra Riedlinger Strasse-5,01,413,0-6,04,8
Schelklingen-Gundershofen Schwarzer-Straße 14--2,022,0-7,03,0
Temp. zw. +14,9°C und +26,5°C. Ganzer Tag meist ausgiebiger Regen.
Schemmerberg Drosselweg 9-0,5-24,0--18,5
Schwörstadt Schulstrasse 19-35,86,234,0-15,21,0
Gewitter
Seekirch Haldenberg 7--4,0-16,025,0-
Sigmaringendorf Weingartenstraße 7-2,43,84,8--4,8
Regen
Tuttlingen-Möhringen Eßlinger Straße-4,93,97,6-5,51,6
Regen
Ulm Eberhardtstraße 750,10,02,120,50,010,52,1
Ummendorf Tulpenweg0,13,80,016,0-10,05,1
Regen
Ummendorf Friedrich-Schiller-Str.--4,014,0--15,0
Regen
Uttenweiler-Ahlen Seekircher Straße 8-0,21,015,0-20,04,2
Regen Gewitter
Vöhringen (Schwarzwald) Drosselweg 3--4,022,0-12,0-
Waldburg Kastanienweg11-39,04,011,8-10,0-
Wangen-Bergerhöhe Berg 2-33,04,618,0-1,812,2
Warthausen An der Schloßhalde -0,51,813,9-10,05,0
Regen
Warthausen Schwabenwiesen -0,71,413,6---
Regen
Warthausen-Barabein Barabein 20-3,02,013,0-9,57,0
Regen
Weingarten Laurastraße-10,05,57,0-1,013,5
+ 16,3 ° C um 5.00 Uhr, 960 hPa,
Regen Nieselregen
Weingarten Hoyerstraße-------
Weingarten Marienstraße-17,51,08,0-2,013,0
Regen
Wolfegg-Veesers Veesers 1-17,22,09,6-2,813,8
Wolpertswende Aulendorfer Str. 17-10,80,44,80,315,73,3
Regen Bodennebel

Stillgelegte Niederschlagsstationen    -    derzeit 50 Stationen

StationLetzte Meldung04.08.05.08.06.08.07.08.08.08.09.08.10.08.Bemerkung 07.08.
Allmannsweiler Eggatsweilerstr.2802.09.2014-------
Aulendorf-Rugetsweiler Erikaweg 325.07.2013-------
Aulendorf-Zollenreute Imterstraße 1209.02.2019-------
Bad Saulgau Willi-Burth-Straße19.09.2011-------
Bad Saulgau Eichendorffweg28.03.2013-------
Bad Saulgau Seewattenstraße 12815.01.2014-------
Bad Saulgau-Lampertsweiler Valentinstr. 2618.02.2015-------
Bad Schussenried-Steinhausen Drosselgasse 4/126.09.2012-------
Bad Waldsee-Michelwinnanden Michelberg 531.12.2014-------
Bad Waldsee-Osterhofen Hochwaldgasse 406.03.2015-------
Bad Waldsee-Steinach Hofraingasse 1510.11.2013-------
Bad Wurzach-Dietmanns Postweg 519.01.2019-------
Bad Wurzach-Haidgau Wengener Straße 507.10.2012-------
Bad Wurzach-Ziegelbach Ziegelbach-Greut 507.11.2014-------
Bergatreute Bolanden 113.02.2012-------
Betzenweiler Offinger Straße 505.01.2017-------
Burgrieden Am Nonnenberg 328.10.2013-------
Burgrieden-Rot Schmiedgasse 518.09.2013-------
Dettingen a. d. Iller Schleifweg 420.05.2019-------
Eberhardzell Schillerstraße05.07.2010-------
Ehingen Am Elzengraben17.06.2016-------
Gammertingen Schillerstraße 2216.01.2016-------
Griesingen Blumenstraße 906.10.2015-------
Günzburg Erlenbadweg 34 1/231.12.2010-------
Hoßkirch Kirchstraße 805.01.2018-------
Ingoldingen-Grodt Ingoldinger Weg 1919.11.2016-------
Kisslegg Kirchmoosstraße02.05.2011-------
Krauchenwies-Hausen Rosenrain 123.11.2013-------
Kressbronn Irisstraße 410.03.2010-------
Leutkirch-Ottmannshofen Spitalriedstraße 527.07.2012-------
Leutkirch-Rotis Rotis 5/208.05.2016-------
Leutkirch-Wuchzenhofen Untere Kirchstraße 18/119.09.2016-------
Mietingen Hangweg 1530.12.2017-------
Mössingen-Bästenhardt Weissdornweg 721.07.2014-------
Ostrach Heiligenberger Straße19.08.2013-------
Pfullendorf Ringstraße 18.03.2012-------
Ravensburg Olgastraße30.10.2016-------
Seltmans Amselweg 2209.04.2013-------
Stuttgart-Bad Cannstatt Beuthener Str. 6703.02.2013-------
Stuttgart-Möhringen Glashütter Weg 1023.04.2017-------
Stuttgart-Rohr Hirschsprung 307.11.2012-------
Talheim Im Schecken 2121.08.2016-------
Tannheim Eggmannstr. 42 22.10.2017-------
Tettnang-Ramsbach Jahnstr. 24/126.03.2011-------
Tuttlingen-Möhringen Belchenstraße01.01.2015-------
Ummendorf Bergstraße23.10.2017-------
Vogt Mühlwies 1822.05.2015-------
Wangen-Atzenberg Keplerweg 324.02.2019-------
Weingarten Bischof-Sproll-Straße30.06.2011-------
Wilhelmsdorf Riedhauser Straße 28.10.2012-------
Wilhelmsdorf Seefeld20.08.2013-------
Wurmlingen An der Steig 3014.10.2016-------
Die Niederschlagswerte des gewählten Tages lassen sich durch Klicken auf das Datum sortieren.
Die Angaben sind in l/m².

Wetterbeobachtungen Legende:

  • Regen
  • Nieselregen
  • Schneeregen
  • Schnee
  • Graupel
  • Eiskörner
  • Hagel
  • Bodennebel
  • Gewitter
  • Nebelnässe
  • Schneegriesel

Grafische Darstellung der Tagesniederschläge vom 07.08.2019

< 06.08.201908.08.2019 >Monats- und Jahresniederschlag


 
wetterstationen
wetterstationen
- derzeit 78 Stationen
niederschlagsdatenbank
wetterstationen
- kartographische Darstellung
niederschlagsdatenbank
niederschlagsstationen
- derzeit 110 Stationen
niederschlagsdatenbank
niederschlagsstationen
- kartographische Darstellung
 
 
Do. 7.30 Uhr - Fr. 7.30 Uhr (MEZ)
1.Füramoos
Hungersberg 1
2,7 l/m²
2.Biberach
Mittelbergstraße 9
1,5 l/m²
3.Bad Schussenried
Konradstraße
0,4 l/m²
 
  treffpunkt & service
--- Anzeigen --------------------------------
zugriffe:
insgesamt: 45.315.027
aktueller monat: 121.969
heute: 157
momentan online: 5
 
 
monatshöchstwert: 653.625
vorheriger monat: 372.551
gestern: 7.263
tageshöchstwert: 51.297
 
wetterwarte süd
 
konradstraße 3
info@wetterwarte-sued.com
roland roth
 
88427 bad schussenried